Flag for U.S.A. Weather past 2 weeks in Evansville, Indiana, U.S.A.

Now
88 °F

Sunny.


Feels Like: 90 °F
Forecast: 67 / 90 °F
Wind: No wind

Location: Evansville Regional Airport

Current Time: Jul 22, 2014 at 2:09:44 PM

Latest Report: Jul 22, 2014 at 11:54 AM


Visibility: 10 mi

Pressure: 30.09 "Hg

Humidity: 49%

Dew point: 66 °F

Location of EvansvilleLocation

Historic Weather in Evansville — Graph

°F

Evansville temperature yesterday

Maximum temperature yesterday: 87 °F (at 2:54 PM)
Minimum temperature yesterday: 66 °F (at 4:54 AM)
Average temperature yesterday: 77 °F

Past Weeks' High & Low Weather Summary

 TemperatureHumidityPressure
High93 °F (Jul 13, 2:54 PM)97% (Jul 19, 4:54 AM)30.20 "Hg (Jul 19, 4:54 AM)
Low57 °F (Jul 16, 5:54 AM)32% (Jul 17, 1:54 PM)29.78 "Hg (Jul 7, 2:54 PM)
Average75 °F67%30.02 "Hg
* Reported Jul 7 11:54 AM — Jul 22 11:54 AM, Evansville, Weather by CustomWeather, © 2014

Note: Actual official high and low records may vary slightly from our data, if they occured in-between our weather recording intervals... More about our weather records

Advertising

Evansville weather history for previous 24 hours

 ConditionsComfort  
Time TempWeatherWind HumidityBarometerVisibility
11:54 AM
Jul 22
87 °FSunny.No wind51%30.08 "Hg10 mi
10:54 AM86 °FSunny.No wind55%30.08 "Hg10 mi
9:54 AM85 °FSunny.3 mph57%30.08 "Hg10 mi
8:54 AM79 °FSunny.3 mph69%30.09 "Hg7 mi
7:54 AM74 °FSunny.No wind82%30.09 "Hg5 mi
6:54 AM70 °FFog.No wind87%30.10 "Hg4 mi
5:54 AM69 °FFog.No wind87%30.09 "Hg3 mi
4:54 AM69 °FFog.No wind87%30.08 "Hg5 mi
3:54 AM69 °FFog.No wind90%30.07 "Hg5 mi
2:54 AM70 °FFog.No wind87%30.06 "Hg5 mi
1:54 AM72 °FClear.No wind84%30.06 "Hg6 mi
12:54 AM72 °FClear.No wind84%30.06 "Hg6 mi
11:54 PM
Jul 21
73 °FClear.No wind81%30.06 "Hg7 mi
10:54 PM74 °FClear.No wind79%30.07 "Hg7 mi
9:54 PM75 °FClear.No wind79%30.07 "Hg8 mi
8:54 PM79 °FClear.No wind67%30.06 "Hg9 mi
7:54 PM82 °FSunny.3 mph60%30.05 "Hg9 mi
6:54 PM86 °FSunny.No wind51%30.04 "Hg10 mi
5:54 PM87 °FPassing clouds.No wind46%30.04 "Hg10 mi
4:54 PM87 °FScattered clouds.No wind42%30.04 "Hg9 mi
3:54 PM87 °FScattered clouds.3 mph45%30.04 "Hg10 mi
2:54 PM87 °FPassing clouds.6 mph48%30.05 "Hg10 mi
Weather by CustomWeather, © 2014

See weather overviewHow to use our weather pages